[[{"header":{"parameterUnit":"m.s-1","parameterCategory":1,"la1":30.2991,"la2":30.254,"lo1":-89.0895,"lo2":-89.0444,"dy":0.0017,"dx":0.0017,"nx":28,"ny":28,"refTime":"2024-10-18T21:00:00:Z","depth":0,"parameterNumber":2,"parameterNumberName":"U-component_of_WINDS"},"data":[0,0,0,0,0,0,0,0,0,0,0,0,0,0,0,0,0,0,0,0,0,0,0,0,0,0,0,0,0,0,0,0,0,0,0,0,0,0,0,0,0,0,0,0,0,0,0,0,0,0,0,0,0,0,0,0,0,0,-5.2486,-5.2486,0,-5.2526,-5.2527,-5.2527,-5.2326,-5.232,-5.2314,-5.2309,-5.2352,-5.2359,-5.2365,0,0,0,0,0,0,0,0,0,0,0,0,0,-5.2235,-5.224,-5.2486,-5.2486,-5.2487,-5.2526,-5.2527,-5.2527,-5.2327,-5.232,-5.2313,-5.2306,-5.235,-5.2358,-5.2366,0,0,0,0,0,0,0,0,0,0,0,0,0,-5.2317,-5.2242,-5.2486,-5.2391,-5.2383,-5.2526,-5.2527,-5.2527,-5.2328,-5.232,-5.2311,-5.2303,-5.2348,-5.2357,-5.2367,-5.2603,0,0,-5.2397,-5.2401,0,0,0,0,0,0,0,0,-5.2312,-5.2326,-5.2405,-5.2398,-5.2389,-5.2412,-5.2454,-5.2553,-5.2331,-5.2349,-5.2309,-5.2298,-5.2379,-5.2386,-5.2413,-5.2605,-5.2606,-5.2398,-5.2404,-5.2408,-5.2411,0,0,0,0,0,0,0,-5.2307,-5.2323,-5.2502,-5.2406,-5.2397,-5.2347,-5.2349,-5.2472,-5.2413,-5.2347,-5.2333,-5.234,-5.2373,-5.2404,-5.2412,-5.2607,-5.2398,-5.2406,-5.2413,-5.2416,-5.2993,-5.3002,0,0,0,0,0,0,-5.2314,-5.232,-5.25,-5.2503,-5.2328,-5.2359,-5.2361,-5.2414,-5.2411,-5.2402,-5.2347,-5.233,-5.2391,-5.2401,-5.2413,-5.2689,-5.2408,-5.2417,-5.2423,-5.2984,-5.2995,-5.3005,0,0,0,0,0,0,-5.2309,-5.2332,-5.2499,-5.2407,-5.2425,-5.2372,-5.2433,-5.2419,-5.2449,-5.2411,-5.24,-5.2389,-5.2385,-5.2399,-5.2557,-5.2687,-5.2422,-5.2431,-5.2973,-5.2987,-5.3,-5.3242,0,0,0,0,0,0,-5.2303,-5.2331,-5.242,-5.2411,-5.2431,-5.2642,-5.2441,-5.2426,-5.2466,-5.2445,-5.2448,-5.244,-5.2379,-5.2543,-5.2567,-5.2696,-5.2438,-5.2961,-5.2979,-5.2996,-5.3222,-5.3263,-5.3297,0,0,0,0,0,-5.2294,-5.2487,-5.2426,-5.2449,-5.2541,-5.265,-5.2661,-5.2587,-5.2478,-5.2567,-5.2542,-5.244,-5.2669,-5.2561,-5.2585,-5.272,-5.2952,-5.2974,-5.2994,-5.3205,-5.3255,-5.3296,0,0,0,0,0,0,-5.2515,-5.2485,-5.2416,-5.2612,-5.2635,-5.2616,-5.2726,-5.2642,-5.2697,-5.2675,-5.258,-5.2583,-5.2757,-5.2753,-5.2634,-5.2947,-5.2791,-5.2819,-5.2944,-5.299,-5.3027,-5.3025,-5.2447,0,0,0,0,0,-5.2586,-5.2677,-5.2645,-5.2821,-5.2836,-5.278,-5.2825,-5.2765,-5.2786,-5.2795,-5.2781,-5.2806,-5.2883,-5.2936,-5.3005,-5.322,-5.3218,-5.3325,-5.3362,-5.3393,-5.3418,-5.3531,-5.3579,-5.3075,-5.3074,-5.3074,0,0,-5.2734,-5.2729,-5.2793,-5.2865,-5.2876,-5.2973,-5.279,-5.29,-5.297,-5.2812,-5.2959,-5.2951,-5.2971,-5.3159,-5.324,-5.3161,-5.3557,-5.342,-5.3445,-5.3453,-5.3558,-5.3606,-5.3648,-5.3089,-5.3086,-5.3084,0,0,-5.3054,-5.3059,-5.3206,-5.322,-5.3239,-5.32,-5.3235,-5.3229,-5.3217,-5.3363,-5.3246,-5.3328,-5.3463,-5.3483,-5.351,-5.3836,-5.3744,-5.3861,-5.4058,-5.417,-5.4209,-5.4244,-5.4361,-5.4403,-5.3886,-5.3886,-5.3887,0,-5.3237,-5.3377,-5.3292,-5.341,-5.3446,-5.3305,-5.3453,-5.3471,-5.3512,-5.354,-5.345,-5.3616,-5.362,-5.381,-5.3889,-5.3916,-5.3953,-5.3861,-5.421,-5.4244,-5.4275,-5.4386,-5.443,-5.3901,-5.3899,-5.3898,-5.3896,0,-5.36,-5.37,-5.3816,-5.3858,-5.3906,-5.4039,-5.3974,-5.4033,-5.3969,-5.394,-5.409,-5.409,-5.4156,-5.4196,-5.4135,-5.4377,-5.4328,-5.4226,-5.4068,-5.4339,-5.4441,-5.4483,-5.3921,-5.3916,-5.3912,-5.3908,0,0,-5.4062,-5.4054,-5.4099,-5.4116,-5.4125,-5.42,-5.4326,-5.4389,-5.4442,-5.4474,-5.4578,-5.4694,-5.46,-5.4631,-5.4571,-5.4669,-5.4927,-5.4554,-5.4553,-5.4624,-5.5194,-5.5271,-5.5321,-5.4865,-5.4872,-5.4879,-5.5192,0,-5.4376,-5.459,-5.4517,-5.4735,-5.4825,-5.4692,-5.4801,-5.4819,-5.4794,-5.4867,-5.4839,-5.4924,-5.4793,-5.4811,-5.4901,-5.4877,-5.504,-5.4853,-5.4961,-5.4966,-5.4961,-5.5374,-5.5457,-5.5753,-5.5231,-5.5238,-5.5243,0,-5.4771,-5.4818,-5.5045,-5.5038,-5.5073,-5.5173,-5.5225,-5.5296,-5.5313,-5.5288,-5.5323,-5.5242,-5.5364,-5.5205,-5.5372,-5.5247,-5.5286,-5.528,-5.529,-5.5298,-5.5122,-5.5395,-5.5845,-5.5891,-5.5305,-5.53,-5.5295,0,-5.5086,-5.5206,-5.5357,-5.5375,-5.5371,-5.5444,-5.5446,-5.5454,-5.5496,-5.5542,-5.5568,-5.5628,-5.5662,-5.571,-5.5646,-5.5536,-5.5824,-5.5659,-5.5807,-5.5809,-5.5874,-5.5871,-5.6339,-5.5899,-5.5898,-5.5897,-5.5897,0,-5.5444,-5.5588,-5.5498,-5.5592,-5.5749,-5.5663,-5.5821,-5.5808,-5.5816,-5.5904,-5.5792,-5.5878,-5.5788,-5.5865,-5.5816,-5.5963,-5.5978,-5.5962,-5.5947,-5.5973,-5.5975,-5.5998,-5.5976,-5.5909,-5.5907,-5.5904,-5.5902,0,-5.5823,-5.5768,-5.5924,-5.5907,-5.5905,-5.6023,-5.6007,-5.6093,-5.6059,-5.6172,-5.6194,-5.6142,-5.6226,-5.6167,-5.6252,-5.6219,-5.6412,-5.6368,-5.6406,-5.6395,-5.6546,-5.6533,-5.7046,-5.7109,-5.6628,-5.6633,-5.6637,0,-5.6056,-5.6164,-5.6157,-5.6208,-5.6216,-5.63,-5.6342,-5.6261,-5.631,-5.6337,-5.642,-5.6494,-5.655,-5.6691,-5.6661,-5.6726,-5.6683,-5.6858,-5.6692,-5.6714,-5.6686,-5.6681,-5.6692,-5.6892,-5.6898,-5.6903,-5.6906,0,-5.6475,-5.6442,-5.6508,-5.6565,-5.6619,-5.6659,-5.6691,-5.6739,-5.6657,-5.6717,-5.6802,-5.6845,-5.6931,-5.7007,-5.706,-5.706,-5.6972,-5.6959,-5.6996,-5.7024,-5.7042,-5.7035,-5.6499,-5.6948,-5.6944,-5.6941,-5.6938,-5.6937,-5.6788,-5.6878,-5.6887,-5.6963,-5.6978,-5.701,-5.709,-5.7065,-5.7134,-5.7198,-5.7145,-5.7247,-5.726,-5.7321,-5.7333,-5.7411,-5.734,-5.7394,-5.7408,-5.7423,-5.7445,-5.7029,-5.7421,-5.7419,-5.7418,-5.7417,-5.7416,0,-5.7202,-5.7201,-5.7272,-5.732,-5.738,-5.7288,-5.7318,-5.7375,-5.7466,-5.7485,-5.7542,-5.7639,-5.7711,-5.7687,-5.7751,-5.7819,-5.7779,-5.7839,-5.7833,-5.7835,-5.7505,-5.7466,-5.7869,-5.7869,-5.7869,-5.7869,-5.7869,-5.7869,-5.7425,-5.7571,-5.7539,-5.7692,-5.7689,-5.7787,-5.7812,-5.7841,-5.7856,-5.7969,-5.8029,-5.8011,-5.8013,-5.8076,-5.8139,-5.813,-5.8159,-5.8234,-5.821,-5.7903,-5.7858,-5.7816,-5.7779,-5.8241,-5.8241,-5.8533,-5.8536,-5.8538]},{"header":{"parameterUnit":"m.s-1","parameterCategory":1,"la1":30.2991,"la2":30.254,"lo1":-89.0895,"lo2":-89.0444,"dy":0.0017,"dx":0.0017,"nx":28,"ny":28,"refTime":"2024-10-18T21:00:00:Z","depth":0,"parameterNumber":3,"parameterNumberName":"V-component_of_WINDS"},"data":[0,0,0,0,0,0,0,0,0,0,0,0,0,0,0,0,0,0,0,0,0,0,0,0,0,0,0,0,0,0,0,0,0,0,0,0,0,0,0,0,0,0,0,0,0,0,0,0,0,0,0,0,0,0,0,0,0,0,-2.9049,-2.9049,0,-2.9046,-2.9045,-2.9045,-2.9023,-2.9023,-2.9022,-2.9022,-2.9016,-2.9017,-2.9017,0,0,0,0,0,0,0,0,0,0,0,0,0,-2.9033,-2.9034,-2.9049,-2.9049,-2.9049,-2.9046,-2.9045,-2.9045,-2.9023,-2.9023,-2.9022,-2.9021,-2.9016,-2.9016,-2.9017,0,0,0,0,0,0,0,0,0,0,0,0,0,-2.9036,-2.9034,-2.9049,-2.9038,-2.9037,-2.9046,-2.9045,-2.9045,-2.9024,-2.9023,-2.9022,-2.9021,-2.9016,-2.9016,-2.9017,-2.9036,0,0,-2.9019,-2.9019,0,0,0,0,0,0,0,0,-2.9036,-2.9037,-2.9039,-2.9039,-2.9037,-2.9034,-2.9038,-2.9042,-2.9024,-2.9028,-2.9022,-2.9021,-2.9023,-2.9023,-2.9024,-2.9036,-2.9036,-2.9019,-2.9019,-2.9019,-2.9019,0,0,0,0,0,0,0,-2.9036,-2.9037,-2.9048,-2.9039,-2.9038,-2.9031,-2.9031,-2.9039,-2.903,-2.9028,-2.9026,-2.9026,-2.9022,-2.9023,-2.9023,-2.9036,-2.9019,-2.9019,-2.9019,-2.902,-2.906,-2.906,0,0,0,0,0,0,-2.9038,-2.9037,-2.9048,-2.9048,-2.9035,-2.9032,-2.9032,-2.9036,-2.903,-2.9028,-2.9027,-2.9025,-2.9023,-2.9023,-2.9023,-2.9043,-2.9019,-2.902,-2.902,-2.9059,-2.906,-2.9061,0,0,0,0,0,0,-2.9037,-2.9039,-2.9048,-2.9042,-2.9042,-2.9034,-2.9038,-2.9036,-2.9037,-2.9029,-2.9027,-2.903,-2.9022,-2.9022,-2.9032,-2.9042,-2.902,-2.902,-2.9058,-2.9059,-2.906,-2.9084,0,0,0,0,0,0,-2.9037,-2.9039,-2.9047,-2.9042,-2.9043,-2.9059,-2.9039,-2.9037,-2.9039,-2.9036,-2.9032,-2.903,-2.9021,-2.9032,-2.9033,-2.9043,-2.9021,-2.9057,-2.9059,-2.906,-2.9082,-2.9086,-2.9089,0,0,0,0,0,-2.9036,-2.9054,-2.9048,-2.9049,-2.9053,-2.9059,-2.906,-2.905,-2.904,-2.9047,-2.9041,-2.903,-2.9041,-2.9033,-2.9034,-2.9044,-2.9056,-2.9058,-2.906,-2.9081,-2.9085,-2.9089,0,0,0,0,0,0,-2.9061,-2.9053,-2.9046,-2.9063,-2.9062,-2.9056,-2.9065,-2.9055,-2.9057,-2.9055,-2.9042,-2.9041,-2.9052,-2.9049,-2.904,-2.9061,-2.9047,-2.9049,-2.9062,-2.9066,-2.9069,-2.9069,-2.9021,0,0,0,0,0,-2.9068,-2.9075,-2.9068,-2.9083,-2.9083,-2.9074,-2.9076,-2.9069,-2.9067,-2.9066,-2.9061,-2.9059,-2.9062,-2.9064,-2.9066,-2.9082,-2.9079,-2.9089,-2.9092,-2.9095,-2.9096,-2.9102,-2.9105,-2.9066,-2.9066,-2.9066,0,0,-2.9083,-2.908,-2.9085,-2.9088,-2.9086,-2.9091,-2.9074,-2.9081,-2.9084,-2.9067,-2.9076,-2.9072,-2.9069,-2.9081,-2.9086,-2.9079,-2.9107,-2.9097,-2.9099,-2.9099,-2.9104,-2.9107,-2.9111,-2.9067,-2.9067,-2.9067,0,0,-2.9113,-2.9113,-2.9124,-2.9122,-2.912,-2.9113,-2.9116,-2.9111,-2.9107,-2.9116,-2.9102,-2.9106,-2.9111,-2.9109,-2.9108,-2.9134,-2.9123,-2.9135,-2.9152,-2.9157,-2.916,-2.9163,-2.917,-2.9173,-2.9137,-2.9137,-2.9137,0,-2.9132,-2.9141,-2.9131,-2.9138,-2.9139,-2.9123,-2.9133,-2.9132,-2.913,-2.913,-2.9122,-2.9127,-2.9124,-2.9134,-2.914,-2.9141,-2.9142,-2.9136,-2.9161,-2.9163,-2.9166,-2.9172,-2.9176,-2.9139,-2.9138,-2.9138,-2.9138,0,-2.9163,-2.9169,-2.9179,-2.9177,-2.9178,-2.9187,-2.9177,-2.9179,-2.9171,-2.9165,-2.9173,-2.9168,-2.9168,-2.917,-2.9162,-2.9178,-2.9173,-2.9163,-2.9149,-2.9171,-2.9177,-2.918,-2.9141,-2.914,-2.914,-2.9139,0,0,-2.9209,-2.92,-2.9204,-2.9201,-2.9196,-2.92,-2.9207,-2.9207,-2.9209,-2.9207,-2.9212,-2.9216,-2.9206,-2.9205,-2.9197,-2.9202,-2.922,-2.9191,-2.919,-2.9195,-2.9234,-2.924,-2.9244,-2.9213,-2.9213,-2.9214,-2.9233,0,-2.9236,-2.9249,-2.9238,-2.9252,-2.9256,-2.924,-2.9246,-2.9242,-2.9236,-2.9238,-2.9231,-2.9233,-2.9221,-2.922,-2.9224,-2.9217,-2.9227,-2.9215,-2.9215,-2.9215,-2.9215,-2.9247,-2.9255,-2.9274,-2.9236,-2.9236,-2.9237,0,-2.927,-2.9269,-2.9283,-2.9275,-2.9276,-2.9282,-2.9279,-2.9282,-2.9277,-2.9272,-2.927,-2.9259,-2.9264,-2.925,-2.9255,-2.9247,-2.9246,-2.9242,-2.9243,-2.9241,-2.9226,-2.9245,-2.928,-2.9282,-2.9241,-2.924,-2.924,0,-2.9299,-2.9302,-2.931,-2.9309,-2.93,-2.9304,-2.93,-2.9295,-2.9294,-2.9292,-2.9291,-2.929,-2.9288,-2.9286,-2.9275,-2.9267,-2.928,-2.9266,-2.9275,-2.9275,-2.9278,-2.9278,-2.9311,-2.928,-2.928,-2.928,-2.928,0,-2.933,-2.9338,-2.9323,-2.9328,-2.9336,-2.9324,-2.9332,-2.9326,-2.9321,-2.9323,-2.9309,-2.9312,-2.9297,-2.9297,-2.9288,-2.9292,-2.9292,-2.9287,-2.9284,-2.9287,-2.9288,-2.9286,-2.9284,-2.928,-2.928,-2.928,-2.928,0,-2.9364,-2.9354,-2.9362,-2.9352,-2.935,-2.9356,-2.9347,-2.935,-2.9343,-2.9345,-2.9345,-2.9333,-2.9332,-2.9321,-2.9318,-2.9311,-2.9318,-2.9314,-2.932,-2.9318,-2.9326,-2.9325,-2.9359,-2.9362,-2.933,-2.933,-2.933,0,-2.9384,-2.939,-2.938,-2.9381,-2.9377,-2.9379,-2.9378,-2.9365,-2.9365,-2.9358,-2.9362,-2.936,-2.9357,-2.9356,-2.9346,-2.9343,-2.9338,-2.935,-2.9337,-2.9339,-2.9335,-2.9335,-2.9334,-2.9352,-2.9352,-2.9353,-2.9353,0,-2.9418,-2.9413,-2.9413,-2.941,-2.9409,-2.9407,-2.9403,-2.9404,-2.939,-2.939,-2.9388,-2.9387,-2.9383,-2.938,-2.9375,-2.937,-2.9358,-2.9357,-2.9358,-2.9361,-2.9364,-2.9361,-2.9326,-2.9356,-2.9356,-2.9356,-2.9356,-2.9355,-2.9444,-2.9448,-2.9441,-2.9441,-2.9437,-2.9433,-2.9435,-2.9427,-2.9426,-2.9422,-2.9414,-2.9413,-2.9406,-2.9398,-2.9393,-2.9391,-2.9385,-2.9388,-2.9388,-2.9389,-2.9389,-2.9365,-2.9391,-2.9391,-2.939,-2.939,-2.939,0,-2.9477,-2.9471,-2.9471,-2.9466,-2.9465,-2.9455,-2.9449,-2.9449,-2.9449,-2.9443,-2.944,-2.9438,-2.9435,-2.9424,-2.942,-2.942,-2.9415,-2.9419,-2.9418,-2.9417,-2.9396,-2.9395,-2.9424,-2.9424,-2.9424,-2.9424,-2.9424,-2.9424,-2.9493,-2.9498,-2.9491,-2.9493,-2.9487,-2.9487,-2.9484,-2.948,-2.9475,-2.9473,-2.947,-2.9463,-2.9455,-2.9449,-2.9445,-2.9442,-2.944,-2.9446,-2.9441,-2.9422,-2.9419,-2.9416,-2.9414,-2.9446,-2.9446,-2.9462,-2.9462,-2.9462]}]]